[{"OBJECT_NAME":"PROBA-1","OBJECT_ID":"2001-049B","EPOCH":"2026-09-12T08:17:45.621888","MEAN_MOTION":15.07796467,"ECCENTRICITY":0.00541211,"INCLINATION":97.962,"RA_OF_ASC_NODE":266.9537,"ARG_OF_PERICENTER":186.2796,"MEAN_ANOMALY":173.7759,"EPHEMERIS_TYPE":0,"CLASSIFICATION_TYPE":"U","NORAD_CAT_ID":26958,"ELEMENT_SET_NO":999,"REV_AT_EPOCH":35675,"BSTAR":0.000063051138,"MEAN_MOTION_DOT":0.00000924,"MEAN_MOTION_DDOT":0},{"OBJECT_NAME":"CUTE-1 (CO-55)","OBJECT_ID":"2003-031E","EPOCH":"2026-09-12T00:03:53.668800","MEAN_MOTION":14.24379869,"ECCENTRICITY":0.00084928,"INCLINATION":98.677,"RA_OF_ASC_NODE":262.484,"ARG_OF_PERICENTER":297.1642,"MEAN_ANOMALY":62.8671,"EPHEMERIS_TYPE":0,"CLASSIFICATION_TYPE":"U","NORAD_CAT_ID":27844,"ELEMENT_SET_NO":999,"REV_AT_EPOCH":20403,"BSTAR":0.000096669711,"MEAN_MOTION_DOT":0.0000018,"MEAN_MOTION_DDOT":0},{"OBJECT_NAME":"CUBESAT XI-IV (CO-57)","OBJECT_ID":"2003-031J","EPOCH":"2026-09-11T13:01:51.342240","MEAN_MOTION":14.23658642,"ECCENTRICITY":0.00086616,"INCLINATION":98.6802,"RA_OF_ASC_NODE":261.6728,"ARG_OF_PERICENTER":319.6234,"MEAN_ANOMALY":40.4301,"EPHEMERIS_TYPE":0,"CLASSIFICATION_TYPE":"U","NORAD_CAT_ID":27848,"ELEMENT_SET_NO":999,"REV_AT_EPOCH":20366,"BSTAR":0.000084348816,"MEAN_MOTION_DOT":0.00000149,"MEAN_MOTION_DDOT":0},{"OBJECT_NAME":"APRIZESAT 4","OBJECT_ID":"2009-041D","EPOCH":"2026-09-12T04:10:02.574624","MEAN_MOTION":14.83986662,"ECCENTRICITY":0.00440403,"INCLINATION":98.135,"RA_OF_ASC_NODE":332.2012,"ARG_OF_PERICENTER":40.8709,"MEAN_ANOMALY":319.5793,"EPHEMERIS_TYPE":0,"CLASSIFICATION_TYPE":"U","NORAD_CAT_ID":35684,"ELEMENT_SET_NO":999,"REV_AT_EPOCH":92426,"BSTAR":0.00005960576,"MEAN_MOTION_DOT":0.00000445,"MEAN_MOTION_DDOT":0},{"OBJECT_NAME":"APRIZESAT 3","OBJECT_ID":"2009-041F","EPOCH":"2026-09-12T00:44:15.960192","MEAN_MOTION":14.9644458,"ECCENTRICITY":0.00620614,"INCLINATION":98.2178,"RA_OF_ASC_NODE":52.4925,"ARG_OF_PERICENTER":139.6292,"MEAN_ANOMALY":220.9559,"EPHEMERIS_TYPE":0,"CLASSIFICATION_TYPE":"U","NORAD_CAT_ID":35686,"ELEMENT_SET_NO":999,"REV_AT_EPOCH":92936,"BSTAR":0.000084057226,"MEAN_MOTION_DOT":0.00000922,"MEAN_MOTION_DDOT":0},{"OBJECT_NAME":"PROBA-2","OBJECT_ID":"2009-059B","EPOCH":"2026-09-12T05:46:31.104192","MEAN_MOTION":14.54892968,"ECCENTRICITY":0.00136101,"INCLINATION":98.2481,"RA_OF_ASC_NODE":77.4098,"ARG_OF_PERICENTER":17.3162,"MEAN_ANOMALY":342.8497,"EPHEMERIS_TYPE":0,"CLASSIFICATION_TYPE":"U","NORAD_CAT_ID":36037,"ELEMENT_SET_NO":999,"REV_AT_EPOCH":89418,"BSTAR":0.000032684322,"MEAN_MOTION_DOT":9.5e-7,"MEAN_MOTION_DDOT":0},{"OBJECT_NAME":"APRIZESAT 5","OBJECT_ID":"2011-044E","EPOCH":"2026-09-12T06:57:22.196736","MEAN_MOTION":14.81203847,"ECCENTRICITY":0.00534367,"INCLINATION":98.2473,"RA_OF_ASC_NODE":190.8126,"ARG_OF_PERICENTER":82.3476,"MEAN_ANOMALY":278.38,"EPHEMERIS_TYPE":0,"CLASSIFICATION_TYPE":"U","NORAD_CAT_ID":37792,"ELEMENT_SET_NO":999,"REV_AT_EPOCH":81168,"BSTAR":0.000091603507,"MEAN_MOTION_DOT":0.00000671,"MEAN_MOTION_DDOT":0},{"OBJECT_NAME":"APRIZESAT 6","OBJECT_ID":"2011-044F","EPOCH":"2026-09-11T17:18:45.082368","MEAN_MOTION":14.77018811,"ECCENTRICITY":0.00432204,"INCLINATION":98.2285,"RA_OF_ASC_NODE":166.9595,"ARG_OF_PERICENTER":167.2665,"MEAN_ANOMALY":222.6812,"EPHEMERIS_TYPE":0,"CLASSIFICATION_TYPE":"U","NORAD_CAT_ID":37793,"ELEMENT_SET_NO":999,"REV_AT_EPOCH":80992,"BSTAR":0.0000654487,"MEAN_MOTION_DOT":0.00000412,"MEAN_MOTION_DDOT":0},{"OBJECT_NAME":"PROBA-V","OBJECT_ID":"2013-021A","EPOCH":"2026-09-11T22:05:11.120640","MEAN_MOTION":14.23612519,"ECCENTRICITY":0.0003116,"INCLINATION":98.3697,"RA_OF_ASC_NODE":229.2878,"ARG_OF_PERICENTER":229.2858,"MEAN_ANOMALY":130.8051,"EPHEMERIS_TYPE":0,"CLASSIFICATION_TYPE":"U","NORAD_CAT_ID":39159,"ELEMENT_SET_NO":999,"REV_AT_EPOCH":69345,"BSTAR":0.000031763,"MEAN_MOTION_DOT":3.1e-7,"MEAN_MOTION_DDOT":0},{"OBJECT_NAME":"APRIZESAT 7","OBJECT_ID":"2013-066A","EPOCH":"2026-09-12T07:00:55.485504","MEAN_MOTION":14.91742937,"ECCENTRICITY":0.00341949,"INCLINATION":97.7793,"RA_OF_ASC_NODE":207.305,"ARG_OF_PERICENTER":283.3216,"MEAN_ANOMALY":76.419,"EPHEMERIS_TYPE":0,"CLASSIFICATION_TYPE":"U","NORAD_CAT_ID":39416,"ELEMENT_SET_NO":999,"REV_AT_EPOCH":69421,"BSTAR":0.00010094955,"MEAN_MOTION_DOT":0.00000969,"MEAN_MOTION_DDOT":0},{"OBJECT_NAME":"APRIZESAT 8","OBJECT_ID":"2013-066K","EPOCH":"2026-09-12T07:23:55.541472","MEAN_MOTION":14.87789358,"ECCENTRICITY":0.00458436,"INCLINATION":97.829,"RA_OF_ASC_NODE":201.5943,"ARG_OF_PERICENTER":1.2242,"MEAN_ANOMALY":358.9078,"EPHEMERIS_TYPE":0,"CLASSIFICATION_TYPE":"U","NORAD_CAT_ID":39425,"ELEMENT_SET_NO":999,"REV_AT_EPOCH":69262,"BSTAR":0.000092470479,"MEAN_MOTION_DOT":0.00000803,"MEAN_MOTION_DDOT":0},{"OBJECT_NAME":"BUGSAT-1 (TITA)","OBJECT_ID":"2014-033E","EPOCH":"2026-09-12T07:03:28.899072","MEAN_MOTION":15.16343749,"ECCENTRICITY":0.00262654,"INCLINATION":98.043,"RA_OF_ASC_NODE":352.9861,"ARG_OF_PERICENTER":241.7995,"MEAN_ANOMALY":118.0583,"EPHEMERIS_TYPE":0,"CLASSIFICATION_TYPE":"U","NORAD_CAT_ID":40014,"ELEMENT_SET_NO":999,"REV_AT_EPOCH":66903,"BSTAR":0.00019577618,"MEAN_MOTION_DOT":0.00003752,"MEAN_MOTION_DDOT":0},{"OBJECT_NAME":"SAUDISAT 4","OBJECT_ID":"2014-033G","EPOCH":"2026-09-11T22:51:47.644992","MEAN_MOTION":14.79636265,"ECCENTRICITY":0.00454392,"INCLINATION":97.7714,"RA_OF_ASC_NODE":38.1568,"ARG_OF_PERICENTER":149.4833,"MEAN_ANOMALY":210.9037,"EPHEMERIS_TYPE":0,"CLASSIFICATION_TYPE":"U","NORAD_CAT_ID":40016,"ELEMENT_SET_NO":999,"REV_AT_EPOCH":65890,"BSTAR":0.000074861989,"MEAN_MOTION_DOT":0.00000519,"MEAN_MOTION_DDOT":0},{"OBJECT_NAME":"APRIZESAT 9","OBJECT_ID":"2014-033J","EPOCH":"2026-09-11T22:44:06.777024","MEAN_MOTION":14.74302714,"ECCENTRICITY":0.00646252,"INCLINATION":97.9183,"RA_OF_ASC_NODE":26.0869,"ARG_OF_PERICENTER":281.6394,"MEAN_ANOMALY":77.7566,"EPHEMERIS_TYPE":0,"CLASSIFICATION_TYPE":"U","NORAD_CAT_ID":40018,"ELEMENT_SET_NO":999,"REV_AT_EPOCH":65634,"BSTAR":0.000058665819,"MEAN_MOTION_DOT":0.00000347,"MEAN_MOTION_DDOT":0},{"OBJECT_NAME":"APRIZESAT 10","OBJECT_ID":"2014-033K","EPOCH":"2026-09-11T22:15:09.172800","MEAN_MOTION":14.70963886,"ECCENTRICITY":0.007858,"INCLINATION":97.9759,"RA_OF_ASC_NODE":20.0037,"ARG_OF_PERICENTER":357.8676,"MEAN_ANOMALY":2.2184,"EPHEMERIS_TYPE":0,"CLASSIFICATION_TYPE":"U","NORAD_CAT_ID":40019,"ELEMENT_SET_NO":999,"REV_AT_EPOCH":65500,"BSTAR":0.000046048995,"MEAN_MOTION_DOT":0.00000242,"MEAN_MOTION_DDOT":0},{"OBJECT_NAME":"TECHDEMOSAT-1 (TDS-1)","OBJECT_ID":"2014-037H","EPOCH":"2026-09-12T00:14:45.514464","MEAN_MOTION":15.14382638,"ECCENTRICITY":0.0005577,"INCLINATION":98.3872,"RA_OF_ASC_NODE":255.9365,"ARG_OF_PERICENTER":351.0486,"MEAN_ANOMALY":9.0643,"EPHEMERIS_TYPE":0,"CLASSIFICATION_TYPE":"U","NORAD_CAT_ID":40076,"ELEMENT_SET_NO":999,"REV_AT_EPOCH":66136,"BSTAR":0.00033607409,"MEAN_MOTION_DOT":0.00006091,"MEAN_MOTION_DDOT":0},{"OBJECT_NAME":"TECHNOSAT","OBJECT_ID":"2017-042E","EPOCH":"2026-09-12T00:06:34.519680","MEAN_MOTION":15.05383808,"ECCENTRICITY":0.00181338,"INCLINATION":97.439,"RA_OF_ASC_NODE":49.4446,"ARG_OF_PERICENTER":153.0581,"MEAN_ANOMALY":207.1592,"EPHEMERIS_TYPE":0,"CLASSIFICATION_TYPE":"U","NORAD_CAT_ID":42829,"ELEMENT_SET_NO":999,"REV_AT_EPOCH":49976,"BSTAR":0.0001187264,"MEAN_MOTION_DOT":0.00001648,"MEAN_MOTION_DDOT":0},{"OBJECT_NAME":"FLYING LAPTOP","OBJECT_ID":"2017-042G","EPOCH":"2026-09-12T07:02:12.418656","MEAN_MOTION":15.01579794,"ECCENTRICITY":0.00162214,"INCLINATION":97.4996,"RA_OF_ASC_NODE":47.7012,"ARG_OF_PERICENTER":183.7209,"MEAN_ANOMALY":176.3898,"EPHEMERIS_TYPE":0,"CLASSIFICATION_TYPE":"U","NORAD_CAT_ID":42831,"ELEMENT_SET_NO":999,"REV_AT_EPOCH":49952,"BSTAR":0.0001276033,"MEAN_MOTION_DOT":0.00001599,"MEAN_MOTION_DDOT":0},{"OBJECT_NAME":"HAWK-A","OBJECT_ID":"2018-099H","EPOCH":"2026-09-12T02:01:02.444448","MEAN_MOTION":15.25626816,"ECCENTRICITY":0.0033308,"INCLINATION":97.3826,"RA_OF_ASC_NODE":306.2033,"ARG_OF_PERICENTER":341.9049,"MEAN_ANOMALY":18.1001,"EPHEMERIS_TYPE":0,"CLASSIFICATION_TYPE":"U","NORAD_CAT_ID":43765,"ELEMENT_SET_NO":999,"REV_AT_EPOCH":42634,"BSTAR":0.00019352423,"MEAN_MOTION_DOT":0.00004923,"MEAN_MOTION_DDOT":0},{"OBJECT_NAME":"HAWK-B","OBJECT_ID":"2018-099AN","EPOCH":"2026-09-12T01:56:15.264672","MEAN_MOTION":15.23712514,"ECCENTRICITY":0.00311976,"INCLINATION":97.3876,"RA_OF_ASC_NODE":305.4277,"ARG_OF_PERICENTER":1.3388,"MEAN_ANOMALY":358.7927,"EPHEMERIS_TYPE":0,"CLASSIFICATION_TYPE":"U","NORAD_CAT_ID":43794,"ELEMENT_SET_NO":999,"REV_AT_EPOCH":42626,"BSTAR":0.00017964922,"MEAN_MOTION_DOT":0.00004299,"MEAN_MOTION_DDOT":0},{"OBJECT_NAME":"HAWK-C","OBJECT_ID":"2018-099AT","EPOCH":"2026-09-12T02:52:19.833600","MEAN_MOTION":15.29308639,"ECCENTRICITY":0.00385033,"INCLINATION":97.3803,"RA_OF_ASC_NODE":307.5919,"ARG_OF_PERICENTER":339.6826,"MEAN_ANOMALY":20.288,"EPHEMERIS_TYPE":0,"CLASSIFICATION_TYPE":"U","NORAD_CAT_ID":43799,"ELEMENT_SET_NO":999,"REV_AT_EPOCH":42719,"BSTAR":0.00020316691,"MEAN_MOTION_DOT":0.00005826,"MEAN_MOTION_DDOT":0},{"OBJECT_NAME":"SALSAT","OBJECT_ID":"2020-068K","EPOCH":"2026-09-11T23:28:21.147456","MEAN_MOTION":15.30885844,"ECCENTRICITY":0.00094697,"INCLINATION":97.888,"RA_OF_ASC_NODE":263.4175,"ARG_OF_PERICENTER":9.1845,"MEAN_ANOMALY":350.9566,"EPHEMERIS_TYPE":0,"CLASSIFICATION_TYPE":"U","NORAD_CAT_ID":46495,"ELEMENT_SET_NO":999,"REV_AT_EPOCH":32863,"BSTAR":0.00020261281,"MEAN_MOTION_DOT":0.00005968,"MEAN_MOTION_DDOT":0},{"OBJECT_NAME":"HAWK-2C","OBJECT_ID":"2021-006CT","EPOCH":"2026-09-12T02:32:36.734208","MEAN_MOTION":15.35601704,"ECCENTRICITY":0.0005078,"INCLINATION":97.2201,"RA_OF_ASC_NODE":297.7027,"ARG_OF_PERICENTER":240.5885,"MEAN_ANOMALY":119.4853,"EPHEMERIS_TYPE":0,"CLASSIFICATION_TYPE":"U","NORAD_CAT_ID":47502,"ELEMENT_SET_NO":999,"REV_AT_EPOCH":31283,"BSTAR":0.00013097135,"MEAN_MOTION_DOT":0.00004455,"MEAN_MOTION_DDOT":0}]